sat.trackr.live / text

‹ back to catalog

STARLINK-5328

NORAD 55657 · 2023-021AF

PAYLOAD ACTIVE UNKNOWN

§ Identity

Operator
Country
US
Launch date
2023-02-17
Launch site
AFWTR
Launch vehicle
Mass (kg)
RCS (m²)

Purposes: comms

External: N2YO · Heavens-Above · Gunter

§ Orbital elements

Epoch: 2026-05-24T22:48:22.561632Z

Period
96.11 min
Inclination
69.9990°
Eccentricity
0.0002877
Mean motion
14.98342855 rev/d
Perigee alt
570.0 km
Apogee alt
574.0 km
Semi-major
6,950.2 km
B*
-3.2371e-4
RAAN
332.3359°
Arg perigee
266.9882°
Mean anomaly
93.0948°
Rev number
18,070

§ Raw data

STARLINK-53281 55657U 23021AF  26144.95026113 -.00003955  00000+0 -32371-3 0  99922 55657  69.9990 332.3359 0002877 266.9882  93.0948 14.98342855180703

JSON: /api/v1/satellites/55657 · /tle

For live sub-satellite position, see the globe view (requires WebGL).

§ Visibility from observer

Set your observer location to see the next 7 days of passes ≥ 10°. The values pass through the URL so the page stays shareable.

No JS? Fill the form by hand. The geolocation button needs JavaScript.